WJA781 CYYT-CYYZ

Flight info

Callsign WJA781
Flight time N/A
Altitude 36000
Route TEXED DCT TAGRA DCT MIILS DCT TUKIR RAGID6
Aircraft B38M/M-SDE1FGHILORVWXY/HB1

Departure

Time 2026-05-06 16:42
Airport St. John's International Airport (CYYT)

Arrival

Time N/A
Airport Toronto Pearson International Airport (CYYZ)
Time Latitude Longitude Altitude Speed Heading
2026-05-06 16:23 47.61408 -52.74465 423 ft 0 kts 173°
2026-05-06 16:33 47.61418 -52.74467 451 ft 3 kts 172°
2026-05-06 16:33 47.61438 -52.74471 451 ft 3 kts 169°
2026-05-06 16:34 47.61476 -52.74489 451 ft 3 kts 142°
2026-05-06 16:34 47.61485 -52.74505 451 ft 3 kts 90°
2026-05-06 16:34 47.61485 -52.74514 451 ft 0 kts 66°
2026-05-06 16:36 47.61491 -52.74488 451 ft 6 kts 74°
2026-05-06 16:37 47.61487 -52.74393 451 ft 13 kts 110°
2026-05-06 16:37 47.61443 -52.74244 451 ft 19 kts 112°
2026-05-06 16:37 47.61383 -52.74038 451 ft 23 kts 116°
2026-05-06 16:37 47.61278 -52.73940 451 ft 12 kts 139°
2026-05-06 16:38 47.61286 -52.73823 447 ft 14 kts 14°
2026-05-06 16:38 47.61412 -52.73833 429 ft 26 kts 356°
2026-05-06 16:38 47.61609 -52.73856 429 ft 29 kts 356°
2026-05-06 16:38 47.61797 -52.73872 446 ft 26 kts 356°
2026-05-06 16:39 47.61978 -52.73891 447 ft 26 kts 355°
2026-05-06 16:39 47.62164 -52.73908 447 ft 27 kts 356°
2026-05-06 16:39 47.62352 -52.73929 438 ft 24 kts 355°
2026-05-06 16:39 47.62483 -52.73940 437 ft 11 kts
2026-05-06 16:40 47.62547 -52.73866 438 ft 13 kts 51°
2026-05-06 16:40 47.62541 -52.73752 427 ft 9 kts 164°
2026-05-06 16:40 47.62518 -52.73800 437 ft 6 kts 289°
2026-05-06 16:40 47.62523 -52.73846 429 ft 0 kts 267°
2026-05-06 16:41 47.62522 -52.73869 434 ft 13 kts 267°
2026-05-06 16:41 47.62494 -52.74447 451 ft 96 kts 265°
2026-05-06 16:42 47.62444 -52.75726 742 ft 140 kts 265°
2026-05-06 16:42 47.62396 -52.77203 1706 ft 146 kts 263°
2026-05-06 16:42 47.62340 -52.78760 2595 ft 164 kts 264°
2026-05-06 16:42 47.62269 -52.80632 3021 ft 196 kts 264°
2026-05-06 16:43 47.62176 -52.82624 4170 ft 199 kts 264°
2026-05-06 16:43 47.62070 -52.84761 4982 ft 216 kts 263°
2026-05-06 16:43 47.61948 -52.87010 6035 ft 222 kts 263°
2026-05-06 16:43 47.61823 -52.89343 6971 ft 233 kts 263°
2026-05-06 16:44 47.61695 -52.91764 7947 ft 238 kts 264°
2026-05-06 16:44 47.61565 -52.94238 8896 ft 244 kts 264°
2026-05-06 16:44 47.61431 -52.96789 9814 ft 252 kts 264°
2026-05-06 16:44 47.61292 -52.99417 10607 ft 263 kts 264°
2026-05-06 16:45 47.61143 -53.02221 11103 ft 283 kts 264°
2026-05-06 16:45 47.60983 -53.05223 11641 ft 299 kts 264°
2026-05-06 16:45 47.60816 -53.08350 12340 ft 307 kts 264°
2026-05-06 16:45 47.60646 -53.11520 13237 ft 311 kts 264°
2026-05-06 16:46 47.60471 -53.14743 14032 ft 316 kts 264°
2026-05-06 16:46 47.60354 -53.16901 14545 ft 318 kts 264°
2026-05-06 16:46 47.60175 -53.20194 15266 ft 323 kts 264°
2026-05-06 16:46 47.59992 -53.23532 16012 ft 326 kts 264°
2026-05-06 16:47 47.59807 -53.26898 16740 ft 330 kts 264°
2026-05-06 16:47 47.59618 -53.30316 17418 ft 335 kts 264°
2026-05-06 16:47 47.59425 -53.33777 18086 ft 339 kts 264°
2026-05-06 16:47 47.59229 -53.37281 18721 ft 343 kts 264°
2026-05-06 16:48 47.59029 -53.40826 19315 ft 347 kts 263°
2026-05-06 16:48 47.58826 -53.44397 19914 ft 350 kts 263°
2026-05-06 16:48 47.58621 -53.48006 20494 ft 353 kts 263°
2026-05-06 16:48 47.58413 -53.51650 21051 ft 357 kts 263°
2026-05-06 16:49 47.58201 -53.55333 21617 ft 361 kts 263°
2026-05-06 16:49 47.57986 -53.59052 22154 ft 364 kts 263°
2026-05-06 16:49 47.57767 -53.62810 22700 ft 368 kts 263°
2026-05-06 16:49 47.57545 -53.66605 23218 ft 372 kts 262°
2026-05-06 16:50 47.57319 -53.70436 23740 ft 375 kts 262°
2026-05-06 16:50 47.57090 -53.74305 24184 ft 379 kts 262°
2026-05-06 16:50 47.56859 -53.78203 24622 ft 382 kts 262°
2026-05-06 16:50 47.56626 -53.82082 25055 ft 384 kts 262°
2026-05-06 16:51 47.56388 -53.86037 25484 ft 387 kts 262°
2026-05-06 16:51 47.56143 -53.90077 25929 ft 390 kts 262°
2026-05-06 16:51 47.55899 -53.94089 26341 ft 393 kts 262°
2026-05-06 16:51 47.55654 -53.98078 26743 ft 396 kts 262°
2026-05-06 16:52 47.55400 -54.02201 27154 ft 398 kts 262°
2026-05-06 16:52 47.55149 -54.06245 27546 ft 401 kts 262°
2026-05-06 16:52 47.54888 -54.10424 27948 ft 404 kts 262°
2026-05-06 16:52 47.54623 -54.14519 28329 ft 406 kts 260°
2026-05-06 16:53 47.54148 -54.18635 28695 ft 408 kts 258°
2026-05-06 16:53 47.53659 -54.22784 29078 ft 410 kts 258°
2026-05-06 16:53 47.53179 -54.26958 29448 ft 413 kts 258°
2026-05-06 16:53 47.52701 -54.31162 29810 ft 416 kts 258°
2026-05-06 16:54 47.52220 -54.35389 30155 ft 418 kts 258°
2026-05-06 16:54 47.51736 -54.39647 30474 ft 421 kts 258°
2026-05-06 16:54 47.51245 -54.43943 30737 ft 424 kts 258°
2026-05-06 16:54 47.50752 -54.48251 31071 ft 426 kts 258°
2026-05-06 16:55 47.50254 -54.52580 31366 ft 428 kts 258°
2026-05-06 16:55 47.49753 -54.56923 31659 ft 430 kts 258°
2026-05-06 16:55 47.49247 -54.61295 31913 ft 433 kts 258°
2026-05-06 16:55 47.48736 -54.65696 32191 ft 435 kts 258°
2026-05-06 16:56 47.48221 -54.70115 32502 ft 437 kts 258°
2026-05-06 16:56 47.47702 -54.74547 32809 ft 438 kts 258°
2026-05-06 16:56 47.47181 -54.78986 33241 ft 437 kts 258°
2026-05-06 16:56 47.46662 -54.83397 33663 ft 436 kts 258°
2026-05-06 16:57 47.46141 -54.87800 34072 ft 435 kts 257°
2026-05-06 16:57 47.45620 -54.92198 34427 ft 434 kts 257°
2026-05-06 16:57 47.45099 -54.96578 34798 ft 432 kts 257°
2026-05-06 16:57 47.44579 -55.00938 35199 ft 429 kts 257°
2026-05-06 16:58 47.44060 -55.05265 35655 ft 426 kts 257°
2026-05-06 16:58 47.43544 -55.09554 36037 ft 423 kts 257°
2026-05-06 16:58 47.43028 -55.13830 36329 ft 422 kts 257°
2026-05-06 16:58 47.42513 -55.18093 36600 ft 422 kts 257°
2026-05-06 16:59 47.41995 -55.22355 36919 ft 420 kts 257°
2026-05-06 16:59 47.41479 -55.26592 37254 ft 418 kts 257°
2026-05-06 16:59 47.40965 -55.30805 37581 ft 416 kts 257°
2026-05-06 16:59 47.40450 -55.35000 37897 ft 414 kts 257°
2026-05-06 17:00 47.39937 -55.39175 38162 ft 413 kts 257°
2026-05-06 17:00 47.38916 -55.47440 38170 ft 409 kts 257°
2026-05-06 17:01 47.37890 -55.55700 38189 ft 410 kts 257°
2026-05-06 17:01 47.36857 -55.63956 38168 ft 408 kts 257°
2026-05-06 17:02 47.35820 -55.72201 38160 ft 410 kts 257°
2026-05-06 17:02 47.34773 -55.80468 38156 ft 410 kts 257°
2026-05-06 17:03 47.33720 -55.88735 38157 ft 410 kts 257°
2026-05-06 17:03 47.32662 -55.96995 38157 ft 410 kts 257°
2026-05-06 17:04 47.31597 -56.05254 38157 ft 410 kts 257°
2026-05-06 17:04 47.30527 -56.13507 38163 ft 410 kts 257°
2026-05-06 17:05 47.29457 -56.21710 38159 ft 411 kts 257°
2026-05-06 17:05 47.28374 -56.29962 38167 ft 410 kts 257°
2026-05-06 17:06 47.27288 -56.38193 38173 ft 410 kts 257°
2026-05-06 17:06 47.26195 -56.46425 38176 ft 410 kts 257°
2026-05-06 17:07 47.25096 -56.54659 38187 ft 410 kts 257°
2026-05-06 17:07 47.23990 -56.62890 38189 ft 410 kts 257°
2026-05-06 17:08 47.22880 -56.71113 38187 ft 410 kts 257°
2026-05-06 17:08 47.21761 -56.79348 38191 ft 411 kts 257°
2026-05-06 17:09 47.20639 -56.87581 38197 ft 409 kts 257°
2026-05-06 17:09 47.19516 -56.95773 38201 ft 409 kts 257°
2026-05-06 17:10 47.18387 -57.03968 38197 ft 409 kts 257°
2026-05-06 17:10 47.17998 -57.12271 38223 ft 410 kts 269°
2026-05-06 17:11 47.18084 -57.20613 38193 ft 411 kts 269°
2026-05-06 17:11 47.18176 -57.29024 38182 ft 411 kts 269°
2026-05-06 17:12 47.18266 -57.37430 38195 ft 410 kts 269°
2026-05-06 17:12 47.18348 -57.45791 38178 ft 409 kts 269°
2026-05-06 17:13 47.18425 -57.54149 38170 ft 409 kts 269°
2026-05-06 17:13 47.18495 -57.62504 38170 ft 409 kts 269°
2026-05-06 17:14 47.18560 -57.70862 38168 ft 409 kts 269°
2026-05-06 17:14 47.18619 -57.79218 38168 ft 409 kts 269°
2026-05-06 17:15 47.18671 -57.87578 38160 ft 409 kts 269°
2026-05-06 17:15 47.18717 -57.95929 38157 ft 409 kts 269°
2026-05-06 17:16 47.18758 -58.04281 38149 ft 409 kts 269°
2026-05-06 17:16 47.18792 -58.12635 38135 ft 409 kts 269°
2026-05-06 17:17 47.18820 -58.20987 38143 ft 409 kts 269°
2026-05-06 17:17 47.18842 -58.29348 38134 ft 409 kts 269°
2026-05-06 17:18 47.18858 -58.37701 38136 ft 407 kts 269°
2026-05-06 17:18 47.18868 -58.46029 38126 ft 408 kts 269°
2026-05-06 17:19 47.18872 -58.54356 38118 ft 407 kts 269°
2026-05-06 17:19 47.18869 -58.62681 38115 ft 407 kts 269°
2026-05-06 17:20 47.18862 -58.70951 38119 ft 407 kts 269°
2026-05-06 17:20 47.18847 -58.79274 38121 ft 407 kts 269°
2026-05-06 17:21 47.18827 -58.87555 38094 ft 403 kts 269°
2026-05-06 17:21 47.18801 -58.95796 38099 ft 403 kts 269°
2026-05-06 17:22 47.18769 -59.04037 38091 ft 403 kts 269°
2026-05-06 17:22 47.18732 -59.12270 38086 ft 403 kts 269°
2026-05-06 17:23 47.18688 -59.20502 38075 ft 403 kts 269°
2026-05-06 17:23 47.18638 -59.28738 38075 ft 403 kts 269°
2026-05-06 17:24 47.18583 -59.36968 38075 ft 403 kts 269°
2026-05-06 17:24 47.18522 -59.45201 38062 ft 403 kts 268°
2026-05-06 17:25 47.18454 -59.53433 38061 ft 403 kts 268°
2026-05-06 17:25 47.18381 -59.61659 38061 ft 403 kts 268°
2026-05-06 17:26 47.18303 -59.69893 38059 ft 403 kts 268°
2026-05-06 17:26 47.18218 -59.78100 38062 ft 400 kts 269°
2026-05-06 17:27 47.18128 -59.86216 38047 ft 399 kts 269°
2026-05-06 17:27 47.18033 -59.94385 38050 ft 400 kts 269°
2026-05-06 17:28 47.17931 -60.02550 38042 ft 400 kts 269°
2026-05-06 17:28 47.17824 -60.10723 38042 ft 400 kts 269°
2026-05-06 17:29 47.17710 -60.18891 38034 ft 400 kts 269°
2026-05-06 17:29 47.17591 -60.27054 38046 ft 399 kts 268°
2026-05-06 17:30 47.17467 -60.35198 38023 ft 398 kts 268°
2026-05-06 17:30 47.17336 -60.43337 38026 ft 399 kts 268°
2026-05-06 17:31 47.17201 -60.51481 38026 ft 398 kts 268°
2026-05-06 17:31 47.17059 -60.59626 38018 ft 398 kts 268°
2026-05-06 17:32 47.16912 -60.67758 38018 ft 398 kts 268°
2026-05-06 17:32 47.16784 -60.74531 38022 ft 399 kts 268°
2026-05-06 17:33 47.16625 -60.82708 38015 ft 401 kts 268°
2026-05-06 17:33 47.16461 -60.90899 38012 ft 401 kts 268°
2026-05-06 17:34 47.16290 -60.99085 38010 ft 401 kts 268°
2026-05-06 17:34 47.16113 -61.07276 38010 ft 401 kts 268°
2026-05-06 17:35 47.15931 -61.15470 38000 ft 401 kts 267°
2026-05-06 17:35 47.15743 -61.23651 38023 ft 400 kts 267°
2026-05-06 17:36 47.15451 -61.35864 37998 ft 399 kts 267°
2026-05-06 17:36 47.15249 -61.44006 37999 ft 399 kts 267°
2026-05-06 17:37 47.15042 -61.52143 37993 ft 399 kts 267°
2026-05-06 17:37 47.14829 -61.60281 37992 ft 399 kts 267°
2026-05-06 17:38 47.14610 -61.68418 37992 ft 399 kts 267°
2026-05-06 17:38 47.14386 -61.76538 37985 ft 397 kts 267°
2026-05-06 17:39 47.14156 -61.84642 37987 ft 397 kts 267°
2026-05-06 17:39 47.13921 -61.92741 37978 ft 397 kts 267°
2026-05-06 17:40 47.13680 -62.00848 37975 ft 397 kts 267°
2026-05-06 17:40 47.13435 -62.08894 37955 ft 397 kts 267°
2026-05-06 17:41 47.13183 -62.16994 37972 ft 397 kts 267°
2026-05-06 17:41 47.12925 -62.25067 37963 ft 394 kts 266°
2026-05-06 17:42 47.12664 -62.33106 37964 ft 395 kts 266°
2026-05-06 17:42 47.12396 -62.41153 37962 ft 395 kts 266°
2026-05-06 17:43 47.12123 -62.49197 37957 ft 394 kts 266°
2026-05-06 17:43 47.11844 -62.57244 37960 ft 394 kts 266°
2026-05-06 17:44 47.11560 -62.65285 37990 ft 394 kts 266°
2026-05-06 17:44 47.11272 -62.73260 37959 ft 388 kts 266°
2026-05-06 17:45 47.10981 -62.81168 37955 ft 388 kts 266°
2026-05-06 17:45 47.10685 -62.89070 37939 ft 387 kts 266°
2026-05-06 17:46 47.10385 -62.96930 37947 ft 385 kts 266°
2026-05-06 17:46 47.10080 -63.04786 37933 ft 385 kts 266°
2026-05-06 17:47 47.09770 -63.12631 37944 ft 385 kts 266°
2026-05-06 17:47 47.09456 -63.20436 37949 ft 380 kts 266°
2026-05-06 17:48 47.09140 -63.28167 37938 ft 380 kts 266°
2026-05-06 17:48 47.08818 -63.35907 37936 ft 380 kts 266°
2026-05-06 17:49 47.08492 -63.43638 37930 ft 380 kts 266°
2026-05-06 17:49 47.08160 -63.51367 37928 ft 380 kts 266°
2026-05-06 17:50 47.07823 -63.59092 37931 ft 379 kts 266°
2026-05-06 17:50 47.07483 -63.66779 37923 ft 374 kts 265°
2026-05-06 17:51 47.07143 -63.74346 37926 ft 371 kts 265°
2026-05-06 17:51 47.06798 -63.81902 37920 ft 371 kts 265°
2026-05-06 17:52 47.06451 -63.89407 37919 ft 371 kts 265°
2026-05-06 17:52 47.06096 -63.96961 37919 ft 371 kts 265°
2026-05-06 17:53 47.05737 -64.04510 37909 ft 371 kts 265°
2026-05-06 17:53 47.05373 -64.12054 37911 ft 371 kts 265°
2026-05-06 17:54 47.05004 -64.19593 37907 ft 371 kts 265°
2026-05-06 17:54 47.04630 -64.27133 37908 ft 371 kts 265°
2026-05-06 17:55 47.04251 -64.34665 37908 ft 370 kts 265°
2026-05-06 17:55 47.03868 -64.42195 37908 ft 370 kts 265°
2026-05-06 17:56 47.03479 -64.49735 37912 ft 372 kts 265°
2026-05-06 17:56 47.03084 -64.57297 37937 ft 372 kts 264°
2026-05-06 17:57 47.02684 -64.64861 37912 ft 372 kts 264°
2026-05-06 17:57 47.02278 -64.72432 37911 ft 373 kts 264°
2026-05-06 17:58 47.01868 -64.79997 37902 ft 372 kts 264°
2026-05-06 17:58 47.01452 -64.87565 37902 ft 372 kts 264°
2026-05-06 17:59 47.01032 -64.95128 37905 ft 372 kts 264°
2026-05-06 17:59 47.00607 -65.02683 37907 ft 372 kts 264°
2026-05-06 18:00 47.00177 -65.10240 37916 ft 371 kts 263°
2026-05-06 18:00 46.99744 -65.17754 37915 ft 371 kts 263°
2026-05-06 18:01 46.99305 -65.25290 37909 ft 373 kts 263°
2026-05-06 18:01 46.98862 -65.32823 37908 ft 374 kts 263°
2026-05-06 18:02 46.98411 -65.40394 37915 ft 374 kts 263°
2026-05-06 18:02 46.97954 -65.47969 37913 ft 374 kts 263°
2026-05-06 18:03 46.97493 -65.55548 37936 ft 373 kts 262°
2026-05-06 18:03 46.97030 -65.63067 37909 ft 371 kts 262°
2026-05-06 18:04 46.96561 -65.70596 37910 ft 371 kts 262°
2026-05-06 18:04 46.96088 -65.78116 37908 ft 371 kts 262°
2026-05-06 18:05 46.95609 -65.85639 37906 ft 371 kts 262°
2026-05-06 18:05 46.95127 -65.93156 37907 ft 371 kts 262°
2026-05-06 18:06 46.94639 -66.00676 37924 ft 372 kts 262°
2026-05-06 18:06 46.94146 -66.08189 37897 ft 370 kts 262°
2026-05-06 18:07 46.93652 -66.15688 37897 ft 370 kts 262°
2026-05-06 18:07 46.93152 -66.23190 37896 ft 370 kts 262°
2026-05-06 18:08 46.92648 -66.30686 37887 ft 370 kts 262°
2026-05-06 18:08 46.92140 -66.38176 37900 ft 370 kts 262°
2026-05-06 18:09 46.91627 -66.45664 37885 ft 370 kts 262°
2026-05-06 18:09 46.91112 -66.53112 37893 ft 371 kts 261°
2026-05-06 18:10 46.90589 -66.60609 37893 ft 371 kts 261°
2026-05-06 18:10 46.90062 -66.68104 37896 ft 370 kts 261°
2026-05-06 18:11 46.89616 -66.74382 37896 ft 371 kts 261°
2026-05-06 18:11 46.88992 -66.83083 37899 ft 370 kts 261°
2026-05-06 18:12 46.88451 -66.90562 37893 ft 370 kts 261°
2026-05-06 18:12 46.87906 -66.98035 37918 ft 370 kts 261°
2026-05-06 18:13 46.87274 -67.05490 37893 ft 368 kts 254°
2026-05-06 18:13 46.86198 -67.12807 37886 ft 369 kts 256°
2026-05-06 18:14 46.85201 -67.20153 37897 ft 369 kts 256°
2026-05-06 18:14 46.84215 -67.27503 37903 ft 369 kts 256°
2026-05-06 18:15 46.83229 -67.34847 37898 ft 369 kts 256°
2026-05-06 18:15 46.82238 -67.42188 37897 ft 369 kts 256°
2026-05-06 18:16 46.81410 -67.48293 37893 ft 369 kts 256°
2026-05-06 18:16 46.80410 -67.55635 37894 ft 369 kts 256°
2026-05-06 18:17 46.79406 -67.62971 37887 ft 369 kts 256°
2026-05-06 18:17 46.78397 -67.70302 37877 ft 369 kts 256°
2026-05-06 18:18 46.77383 -67.77635 37864 ft 368 kts 256°
2026-05-06 18:18 46.76364 -67.84961 37877 ft 368 kts 256°
2026-05-06 18:19 46.75342 -67.92280 37871 ft 369 kts 256°
2026-05-06 18:19 46.74314 -67.99600 37866 ft 367 kts 256°
2026-05-06 18:20 46.73285 -68.06894 37872 ft 368 kts 256°
2026-05-06 18:20 46.72251 -68.14193 37875 ft 368 kts 256°
2026-05-06 18:21 46.71211 -68.21493 37880 ft 368 kts 256°
2026-05-06 18:21 46.70167 -68.28789 37872 ft 368 kts 256°
2026-05-06 18:22 46.69119 -68.36077 37890 ft 368 kts 255°
2026-05-06 18:22 46.68065 -68.43371 37943 ft 368 kts 255°
2026-05-06 18:23 46.67016 -68.50593 37894 ft 366 kts 255°
2026-05-06 18:23 46.65957 -68.57851 37910 ft 367 kts 255°
2026-05-06 18:24 46.64892 -68.65116 37898 ft 367 kts 255°
2026-05-06 18:24 46.63822 -68.72379 37877 ft 367 kts 255°
2026-05-06 18:25 46.62751 -68.79621 37902 ft 366 kts 255°
2026-05-06 18:25 46.61678 -68.86857 37872 ft 367 kts 255°
2026-05-06 18:26 46.60594 -68.94097 37900 ft 366 kts 255°
2026-05-06 18:26 46.59510 -69.01323 37893 ft 365 kts 255°
2026-05-06 18:27 46.58420 -69.08551 37881 ft 366 kts 255°
2026-05-06 18:27 46.57327 -69.15770 37885 ft 366 kts 254°
2026-05-06 18:28 46.56229 -69.22988 37884 ft 366 kts 254°
2026-05-06 18:28 46.55127 -69.30203 37888 ft 366 kts 254°
2026-05-06 18:29 46.54022 -69.37421 37936 ft 367 kts 254°
2026-05-06 18:29 46.52903 -69.44665 37883 ft 368 kts 254°
2026-05-06 18:30 46.51780 -69.51914 37859 ft 367 kts 254°
2026-05-06 18:30 46.50658 -69.59121 37937 ft 371 kts 253°
2026-05-06 18:31 46.50088 -69.62772 37829 ft 369 kts 254°
2026-05-06 18:31 46.49522 -69.66394 37846 ft 367 kts 254°
2026-05-06 18:31 46.48385 -69.73637 37869 ft 369 kts 254°
2026-05-06 18:32 46.47242 -69.80883 37865 ft 368 kts 253°
2026-05-06 18:32 46.46096 -69.88121 37864 ft 368 kts 253°
2026-05-06 18:33 46.44941 -69.95382 37863 ft 371 kts 253°
2026-05-06 18:33 46.43778 -70.02665 37863 ft 372 kts 253°
2026-05-06 18:34 46.42607 -70.09963 37859 ft 372 kts 253°
2026-05-06 18:34 46.41430 -70.17261 37862 ft 371 kts 253°
2026-05-06 18:35 46.40251 -70.24549 37890 ft 372 kts 253°
2026-05-06 18:35 46.39066 -70.31839 37821 ft 371 kts 253°
2026-05-06 18:36 46.37876 -70.39127 37900 ft 373 kts 253°
2026-05-06 18:36 46.36673 -70.46464 38072 ft 375 kts 253°
2026-05-06 18:37 46.36069 -70.50131 38335 ft 374 kts 253°
2026-05-06 18:37 46.35466 -70.53793 38579 ft 374 kts 253°
2026-05-06 18:37 46.34859 -70.57461 38722 ft 375 kts 253°
2026-05-06 18:37 46.34251 -70.61136 38835 ft 376 kts 254°
2026-05-06 18:38 46.33640 -70.64818 38969 ft 377 kts 253°
2026-05-06 18:38 46.33026 -70.68508 39109 ft 377 kts 253°
2026-05-06 18:38 46.32411 -70.72198 39251 ft 378 kts 253°
2026-05-06 18:38 46.31793 -70.75894 39387 ft 378 kts 253°
2026-05-06 18:39 46.31174 -70.79595 39523 ft 379 kts 254°
2026-05-06 18:39 46.30554 -70.83293 39671 ft 379 kts 253°
2026-05-06 18:39 46.29940 -70.86940 39830 ft 378 kts 253°
2026-05-06 18:40 46.28687 -70.94371 39851 ft 382 kts 253°
2026-05-06 18:40 46.27426 -71.01820 39854 ft 381 kts 253°
2026-05-06 18:41 46.26160 -71.09263 39860 ft 382 kts 253°
2026-05-06 18:41 46.24889 -71.16703 39872 ft 382 kts 253°
2026-05-06 18:42 46.23612 -71.24144 39842 ft 381 kts 253°
2026-05-06 18:42 46.22329 -71.31593 39858 ft 382 kts 253°
2026-05-06 18:43 46.21039 -71.39048 39882 ft 384 kts 253°
2026-05-06 18:43 46.19737 -71.46539 39874 ft 385 kts 253°
2026-05-06 18:44 46.18430 -71.54030 39875 ft 385 kts 253°
2026-05-06 18:44 46.17118 -71.61520 39871 ft 385 kts 253°
2026-05-06 18:45 46.15800 -71.69005 39869 ft 385 kts 253°
2026-05-06 18:45 46.14478 -71.76489 39869 ft 385 kts 253°
2026-05-06 18:46 46.13149 -71.83980 39861 ft 386 kts 253°
2026-05-06 18:46 46.11811 -71.91487 39878 ft 387 kts 253°
2026-05-06 18:47 46.10468 -71.98994 39863 ft 387 kts 253°
2026-05-06 18:47 46.09119 -72.06503 39869 ft 387 kts 253°
2026-05-06 18:48 46.07765 -72.14006 39868 ft 387 kts 253°
2026-05-06 18:48 46.06406 -72.21508 39855 ft 387 kts 253°
2026-05-06 18:49 46.05042 -72.29008 39903 ft 387 kts 253°
2026-05-06 18:49 46.03669 -72.36525 39874 ft 389 kts 253°
2026-05-06 18:50 46.02289 -72.44050 39866 ft 389 kts 253°
2026-05-06 18:50 46.00906 -72.51563 39865 ft 389 kts 253°
2026-05-06 18:51 45.99515 -72.59085 39868 ft 389 kts 253°
2026-05-06 18:51 45.98130 -72.66548 39869 ft 389 kts 253°
2026-05-06 18:52 45.96730 -72.74058 39865 ft 389 kts 253°
2026-05-06 18:52 45.95323 -72.81580 39876 ft 390 kts 253°
2026-05-06 18:53 45.93908 -72.89113 39871 ft 391 kts 253°
2026-05-06 18:53 45.92487 -72.96646 39871 ft 391 kts 253°
2026-05-06 18:54 45.91061 -73.04176 39871 ft 391 kts 253°
2026-05-06 18:54 45.89629 -73.11705 39872 ft 391 kts 253°
2026-05-06 18:55 45.88193 -73.19230 39872 ft 391 kts 253°
2026-05-06 18:55 45.86751 -73.26755 39884 ft 392 kts 253°
2026-05-06 18:56 45.85299 -73.34298 39877 ft 392 kts 253°
2026-05-06 18:56 45.83843 -73.41838 39874 ft 392 kts 253°
2026-05-06 18:57 45.82381 -73.49375 39871 ft 392 kts 253°
2026-05-06 18:57 45.80915 -73.56908 39873 ft 392 kts 253°
2026-05-06 18:58 45.79442 -73.64443 39872 ft 392 kts 253°
2026-05-06 18:58 45.78217 -73.70691 39865 ft 392 kts 253°
2026-05-06 18:59 45.76736 -73.78213 39873 ft 392 kts 253°
2026-05-06 18:59 45.75251 -73.85727 39870 ft 392 kts 253°
2026-05-06 19:00 45.73761 -73.93239 39878 ft 392 kts 253°
2026-05-06 19:00 45.72267 -74.00744 39873 ft 392 kts 253°
2026-05-06 19:01 45.70768 -74.08245 39874 ft 392 kts 253°
2026-05-06 19:01 45.69263 -74.15744 39890 ft 393 kts 253°
2026-05-06 19:02 45.67751 -74.23250 39874 ft 393 kts 252°
2026-05-06 19:02 45.66234 -74.30757 39872 ft 393 kts 252°
2026-05-06 19:03 45.64711 -74.38261 39873 ft 393 kts 252°
2026-05-06 19:03 45.63183 -74.45764 39874 ft 393 kts 252°
2026-05-06 19:04 45.61650 -74.53257 39875 ft 393 kts 252°
2026-05-06 19:04 45.60113 -74.60750 39894 ft 393 kts 252°
2026-05-06 19:05 45.58570 -74.68240 39879 ft 393 kts 252°
2026-05-06 19:05 45.57022 -74.75726 39871 ft 393 kts 252°
2026-05-06 19:06 45.55479 -74.83162 39865 ft 393 kts 252°
2026-05-06 19:06 45.53922 -74.90634 39857 ft 393 kts 252°
2026-05-06 19:07 45.52363 -74.98094 39868 ft 392 kts 252°
2026-05-06 19:07 45.50799 -75.05546 39863 ft 392 kts 252°
2026-05-06 19:08 45.49232 -75.12987 39864 ft 391 kts 252°
2026-05-06 19:08 45.47662 -75.20416 39858 ft 392 kts 252°
2026-05-06 19:09 45.46085 -75.27849 39852 ft 392 kts 252°
2026-05-06 19:09 45.44504 -75.35280 39850 ft 392 kts 252°
2026-05-06 19:10 45.42921 -75.42700 39844 ft 392 kts 252°
2026-05-06 19:10 45.41336 -75.50103 39838 ft 391 kts 252°
2026-05-06 19:11 45.39750 -75.57487 39864 ft 390 kts 252°
2026-05-06 19:11 45.38167 -75.64827 39856 ft 390 kts 252°
2026-05-06 19:12 45.36574 -75.72196 39856 ft 390 kts 252°
2026-05-06 19:12 45.34974 -75.79568 39857 ft 390 kts 252°